Regional Weather Roundup
Issued by NWS Sioux Falls, SD

Home | Current Version | Previous Version | Graphics & Text | Print | Product List | Glossary Off
Versions: 1 2 3 4 5 6 7 8 9 10 11 12 13 14 15 16 17 18 19 20 21 22 23 24 25 26 27 28 29 30 31 32 33 34 35 36 37 38 39 40 41 42 43 44 45 46 47 48 49 50

000
ASUS43 KFSD 300910
RWRFSD

WEATHER ROUNDUP FOR SE SOUTH DAKOTA/SW MINNESOTA/NW IOWA
NATIONAL WEATHER SERVICE SIOUX FALLS SD
400 AM CDT THU JUL 30 2015

NOTE: "FAIR" INDICATES FEW OR NO CLOUDS BELOW 12,000 FEET WITH NO
SIGNIFICANT WEATHER AND OR OBSTRUCTIONS TO VISIBILITY.


SDZ038>040-050-052>070-301000-
SOUTHEAST SOUTH DAKOTA

CITY           SKY/WX    TMP DP  RH WIND       PRES   REMARKS
BROOKINGS      CLEAR     61  54  77 S3        30.13S
CHAMBERLAIN    CLEAR     63  55  77 CALM      30.14R
HURON          CLEAR     58  53  84 W5        30.10S
MADISON        FAIR      59  55  88 W6        30.13S
MITCHELL       CLEAR     60  56  86 CALM      30.12S
SIOUX FALLS    CLEAR     62  57  83 W3        30.13R
WINNER         FAIR      70  51  51 SW9       30.15S
YANKTON        CLOUDY    64  54  68 CALM      30.13R
$$

MNZ071-072-080-081-089-090-097-098-301000-
SOUTHWEST MINNESOTA

CITY           SKY/WX    TMP DP  RH WIND       PRES   REMARKS
FAIRMONT       CLEAR     63  52  67 W7        30.09S
JACKSON        CLEAR     61  55  82 W5        30.12S
LUVERNE        CLEAR     57  54  88 S3        30.13S
MARSHALL       CLEAR     63  52  67 W10       30.09S
MONTEVIDEO     CLEAR     59  54  82 W3        30.08R
PIPESTONE      CLEAR     59  54  82 CALM      30.13S
REDWOOD FALLS  CLEAR     65  53  65 W10       30.06S
TRACY          CLEAR     63  55  77 W8        30.10S
WINDOM         CLEAR     61  54  77 CALM      30.11S
WORTHINGTON    CLEAR     61  52  72 SW6       30.13S
$$

IAZ001>003-012>014-020>022-031-032-NEZ013-014-SDZ071-301000-
NORTHWEST IOWA

CITY           SKY/WX    TMP DP  RH WIND       PRES   REMARKS
CHEROKEE       PTCLDY    59  59 100 CALM      30.14S
DENISON        CLEAR     61  59  94 CALM      30.15R
ESTHERVILLE    CLEAR     58  56  93 W7        30.11S
LE MARS        PTCLDY    59  59 100 CALM      30.14S
ORANGE CITY    CLEAR     61  57  88 CALM      30.14S
SHELDON        CLEAR     54  54 100 CALM      30.13S
SIOUX CITY     CLEAR     65  58  78 W5        30.14S
SPENCER          N/A     58  54  86 CALM      30.13S
STORM LAKE     CLEAR     63  59  88 W8        30.16R
$$

ABBREVIATIONS USED IN REMARKS
   TC - TEMPERATURE IN CELSIUS
  WCI - WIND CHILL INDEX
   HX - HEAT INDEX
  VSB - VISIBILITY



USA.gov is the U.S. government's official web portal to all federal, state and local government web resources and services.